| time (UTC) | temp C | wind direction | speed KPH | gust KPH | rain 1hr cm | rain 24hr cm | rain mn cm | humidity % | barometer mb |
| 20260507193730 | 14 | 345 | 0.0 | 0.0 | 0.00 | 0.00 | 0.00 | 74 | 972.7 |
| 20260507190730 | 15 | 344 | 0.0 | 0.0 | 0.00 | 0.00 | 0.00 | 71 | 972.5 |
| 20260507183729 | 16 | 340 | 0.0 | 0.0 | 0.00 | 0.00 | 0.00 | 69 | 972.2 |
| 20260507182126 | 17 | 346 | 0.0 | 0.0 | 0.00 | 0.00 | 0.00 | 67 | 972.1 |
| 20260507173730 | 17 | 13 | 0.0 | 0.0 | 0.00 | 0.00 | 0.00 | 64 | 971.9 |
| 20260507170730 | 17 | 32 | 0.0 | 1.6 | 0.00 | 0.00 | 0.00 | 64 | 971.9 |
| 20260507163732 | 18 | 350 | 0.0 | 4.8 | 0.00 | 0.00 | 0.00 | 64 | 971.9 |
| 20260507160728 | 18 | 355 | 0.0 | 0.0 | 0.00 | 0.00 | 0.00 | 63 | 972.0 |
| 20260507153726 | 18 | 350 | 0.0 | 3.2 | 0.00 | 0.00 | 0.00 | 63 | 972.1 |
| 20260507150723 | 19 | 351 | 0.0 | 0.0 | 0.00 | 0.00 | 0.00 | 63 | 972.3 |
| 20260507145117 | 19 | 0 | 0.0 | 3.2 | 0.00 | 0.00 | 0.00 | 62 | 972.5 |
| 20260507140725 | 20 | 0 | 0.0 | 0.0 | 0.00 | 0.00 | 0.00 | 59 | 972.5 |
| 20260507133720 | 20 | 0 | 0.0 | 0.0 | 0.00 | 0.00 | 0.00 | 60 | 972.7 |
| 20260507130718 | 20 | 0 | 0.0 | 6.4 | 0.00 | 0.00 | 0.00 | 58 | 973.1 |
| 20260507123719 | 20 | 29 | 0.0 | 0.0 | 0.00 | 0.00 | 0.00 | 65 | 973.3 |
| 20260507113713 | 20 | 292 | 0.0 | 0.0 | 0.00 | 0.00 | 0.00 | 66 | 973.4 |
| 20260507110710 | 20 | 351 | 0.0 | 1.6 | 0.00 | 0.00 | 0.00 | 65 | 973.6 |
| 20260507103706 | 17 | 333 | 0.0 | 0.0 | 0.00 | 0.00 | 0.00 | 69 | 973.8 |
| 20260507100706 | 18 | 355 | 0.0 | 0.0 | 0.00 | 0.05 | 0.00 | 65 | 973.8 |
| 20260507093704 | 17 | 46 | 0.0 | 0.0 | 0.00 | 0.05 | 0.00 | 72 | 974.0 |
| 20260507090703 | 17 | 92 | 0.0 | 0.0 | 0.00 | 0.05 | 0.00 | 72 | 973.9 |
| 20260507083705 | 16 | 50 | 0.0 | 0.0 | 0.00 | 0.05 | 0.00 | 75 | 973.7 |
| 20260507080704 | 15 | 10 | 0.0 | 0.0 | 0.00 | 0.13 | 0.00 | 78 | 973.8 |
| 20260507073705 | 15 | 75 | 0.0 | 0.0 | 0.00 | 0.23 | 0.00 | 79 | 973.7 |
| 20260507072050 | 13 | 286 | 0.0 | 0.0 | 0.00 | 0.36 | 0.00 | 87 | 973.6 |
| 20260507063704 | 12 | 107 | 0.0 | 0.0 | 0.00 | 0.48 | 0.00 | 95 | 973.4 |
| 20260507060704 | 10 | 108 | 0.0 | 0.0 | 0.00 | 0.56 | 0.00 | 95 | 973.3 |
| 20260507055049 | 7 | 109 | 0.0 | 0.0 | 0.00 | 0.61 | 0.00 | 94 | 973.2 |
| 20260507050703 | 7 | 109 | 0.0 | 0.0 | 0.00 | 0.64 | 0.00 | 93 | 973.1 |
| 20260507043704 | 7 | 108 | 0.0 | 0.0 | 0.00 | 0.74 | 0.00 | 92 | 972.8 |
| 20260507040706 | 7 | 108 | 0.0 | 0.0 | 0.00 | 0.86 | 0.00 | 92 | 972.6 |
| 20260507040509 | 7 | 109 | 0.0 | 0.0 | 0.00 | 0.99 | 0.00 | 92 | 972.6 |
| 20260507030701 | 8 | 109 | 0.0 | 0.0 | 0.00 | 1.09 | 0.00 | 92 | 972.6 |
| 20260507023701 | 8 | 109 | 0.0 | 0.0 | 0.00 | 1.17 | 0.00 | 92 | 972.5 |
| 20260507013656 | 9 | 108 | 0.0 | 0.0 | 0.00 | 1.35 | 0.00 | 92 | 972.3 |
| 20260507010657 | 9 | 109 | 0.0 | 0.0 | 0.00 | 1.37 | 0.00 | 92 | 972.3 |
| 20260507003655 | 9 | 109 | 0.0 | 0.0 | 0.00 | 1.37 | 0.00 | 91 | 972.4 |
| 20260507000656 | 9 | 108 | 0.0 | 0.0 | 0.00 | 1.37 | 0.00 | 91 | 972.4 |
| 20260506233655 | 8 | 108 | 0.0 | 0.0 | 0.00 | 1.40 | 0.00 | 90 | 972.2 |
| 20260506230656 | 9 | 108 | 0.0 | 0.0 | 0.00 | 1.42 | 0.00 | 88 | 972.3 |
| 20260506225047 | 9 | 108 | 0.0 | 0.0 | 0.00 | 1.42 | 0.00 | 88 | 972.2 |
| 20260506220654 | 10 | 108 | 0.0 | 0.0 | 0.00 | 1.42 | 0.00 | 87 | 972.2 |
| 20260506213652 | 10 | 99 | 0.0 | 0.0 | 0.00 | 1.42 | 1.42 | 87 | 971.9 |
| 20260506210654 | 10 | 98 | 0.0 | 0.0 | 0.00 | 1.52 | 1.42 | 86 | 971.8 |
| 20260506203651 | 11 | 94 | 0.0 | 0.0 | 0.00 | 1.57 | 1.42 | 86 | 971.5 |
| 20260506200651 | 12 | 63 | 0.0 | 4.8 | 0.00 | 1.63 | 1.42 | 85 | 971.4 |